Regional Weather Roundup
Issued by NWS

Home | Current Version | Previous Version | Text Only | Print | Product List | Glossary On
Versions: 1 2 3 4 5 6 7 8 9 10 11 12 13 14 15 16 17 18 19 20 21 22 23 24 25 26 27 28 29 30 31 32 33 34 35 36 37 38 39 40 41 42 43 44 45 46 47 48 49 50
000
ASUS45 KTFX 270019
RWRMT
MONTANA HOURLY WEATHER ROUNDUP
NATIONAL WEATHER SERVICE GREAT FALLS MT
519 PM MST THU FEB 26 2015

NOTE: "FAIR" INDICATES FEW OR NO CLOUDS BELOW 12000 FEET WITH NO
SIGNIFICANT WEATHER AND/OR OBSTRUCTIONS TO VISIBILITY.

* THESE STATIONS ARE NOT UNDER NWS QUALITY CONTROL. THEY DO NOT
   REPORT WEATHER SUCH AS PRECIPITATION OR FOG.

MTZ001>007-043-270100-
WEST OF THE DIVIDE
CITY           SKY/WX    TMP DP  RH WIND       PRES   REMARKS
KALISPELL      MOCLDY    36  16  44 CALM      30.05F
MISSOULA       PTCLDY    37  18  46 E13       30.03F WCI  29
BUTTE          PTCLDY    21  12  68 S18       29.98F WCI   6
MULLAN PASS    LGT SNOW  27  19  72 CALM      29.91F
* ANACONDA     PTCLDY    21  16  81 N3         N/A
* ESSEX        N/A       28  14  56 SE3        N/A
* EUREKA APT   MOCLDY    39  14  36 S5        30.02F WCI  35
* HAMILTON APT PTCLDY    37  14  39 N13       29.98F WCI  29
* LIBBY APT    MOCLDY    41  18  39 CALM      30.02F
* LINCOLN      N/A       29   9  43 NE6G11     N/A   WCI  23
* LOOKOUT PASS N/A       33  21  61 SW1        N/A
* POLSON       N/A       33  17  52 N2         N/A
* RONAN APT    PTCLDY    36  21  54 NW7        N/A   WCI  30
* SEELEY LAKE  N/A       33   9  36 SW5G12     N/A   WCI  28
* THOMP F APT  MOCLDY    30   7  38 N8G17      N/A   WCI  22
$$

MTZ008-052>055-270100-
SOUTHWEST MONTANA
CITY           SKY/WX    TMP DP  RH WIND       PRES   REMARKS
BOZEMAN        MOCLDY    21  10  62 S9        30.09F WCI  11
DILLON         CLEAR     25  10  53 NE13      29.98F WCI  13
* W YELLOWSTON PTCLDY    27   6  41 N5G12      N/A   WCI  21
* THREE FORKS  PTCLDY    23  12  63 N/A        N/A
* BOULDER HILL N/A       16   6  64 NE3        N/A
* MONIDA PASS  N/A       23   8  52 NW11       N/A   WCI  12
* RAYNOLDS PAS N/A       11   9  92 N16        N/A   WCI  -6
* WHITEHALL    N/A       25  10  53 SE11G20    N/A   WCI  14
* WISE RIVER   N/A       27  12  53 SE11G16    N/A   WCI  17
$$

MTZ009>010-012-014-046-048-049-054-270100-
EAST SLOPES AND CENTRAL MONTANA
CITY           SKY/WX    TMP DP  RH WIND       PRES   REMARKS
CUT BANK       CLOUDY    12   7  80 SE17      30.14F WCI  -5
GREAT FALLS    CLEAR     16   7  67 SE16      30.17F WCI   1
HELENA         PTCLDY    25   9  50 CALM      30.11F
MALMSTROM AFB  CLEAR     14   9  80 E8        30.20F WCI   3
* CONRAD       CLEAR     16   7  67 E12G17     N/A   WCI   3
* DEARBORN     N/A       17   8  68 VRB9       N/A   WCI   6
* EAST GLACIER N/A        6   2  83 E2         N/A
* MONARCH      N/A       11  -4  50 E4         N/A
* PENDROY      N/A       11   6  80 S12        N/A   WCI  -4
* ROGERS PASS  N/A        8   3  80 NW2        N/A
* SWEET GRASS  N/A       13   5  70 S20G26     N/A   WCI  -5
* WHITE SULPH  N/A       14   0  53 NE8G14     N/A   WCI   3
$$

MTZ011-013-016-021-035-040-045-047-050-051-270100-
NORTH CENTRAL MONTANA
CITY           SKY/WX    TMP DP  RH WIND       PRES   REMARKS
HAVRE          CLEAR     19   3  49 SE8       30.30F WCI   9
LEWISTOWN      CLEAR     12   1  61 E13       30.18F WCI  -3
* N BAR RANCH  PTCLDY     9   0  66 SE9       30.20F WCI  -4
* CHINOOK      CLEAR     12  -2  53 E14       30.35F WCI  -4
* FORT BENTON  CLEAR     16   7  67 E12       30.27F WCI   3
* CHESTER      N/A       15   3  59 S10G18     N/A   WCI   3
* DENTON       N/A       14   2  59 SE10       N/A   WCI   1
* GEYSER       N/A       13   2  61 E8         N/A   WCI   2
* JUDITH GAP   N/A        9   2  73 SE16       N/A   WCI  -8
* LOMA         N/A       15   6  67 E16        N/A   WCI  -1
$$

MTZ017>020-022>027-061-062-270100-
NORTHEAST MONTANA
CITY           SKY/WX    TMP DP  RH WIND       PRES   REMARKS
GLASGOW        CLEAR     10  -8  43 S10       30.44F WCI  -4
GLENDIVE       CLEAR     12  -6  44 E6        30.45F WCI   2
JORDAN         CLEAR     12  -6  44 S9        30.40F
SIDNEY         CLEAR     12  -6  44 NE5       30.53F WCI   4
WOLF POINT     CLEAR     16  -6  37 CALM      30.49F
* BEAVER HILL  N/A       10  -6  48 N/A        N/A
* CIRCLE       N/A       14  -2  49 N/A        N/A
* LINDSAY DVD  N/A       11  -5  48 E4         N/A
* NAVAJO       N/A       10  -7  46 S3         N/A
* POPLAR APT   CLEAR     16  -4  40 CALM      30.49F
* SACO         N/A       13  -6  42 SE11       N/A
* SCOBEY APT   CLEAR     12  -9  38 N/A        N/A
$$

MTZ028>042-056>058-270100-
SOUTHCENTRAL AND SOUTHEAST MONTANA
CITY           SKY/WX    TMP DP  RH WIND       PRES   REMARKS
BAKER          CLEAR     10  -2  58 CALM      30.41F
BILLINGS       PTCLDY    12   0  58 E13       30.27F WCI  -3
LIVINGSTON     MOCLDY    10   1  67 E16       30.14F WCI  -7
MILES CITY     CLEAR     12  -2  53 S7        30.42S WCI   1
* BIG TIMBER A CLEAR     10   3  73 E9        30.18F WCI  -3
* FORSYTH APT  CLEAR     12   1  61 SE5       30.40F WCI   4
* LAUREL APT   PTCLDY    12  -2  53 E6         N/A   WCI   2
* ROUNDUP APT  CLEAR     16   0  49 NE8        N/A   WCI   5
* ALZADA       N/A        6  -6  57 N2         N/A
* HYSHAM       N/A        9  -5  52 E6         N/A   WCI  -1
* LAME DEER    N/A        3  -3  76 E6         N/A   WCI  -8
* REED POINT   N/A       14   5  67 E3         N/A
$$

REGIONAL REPORTS...DAKOTAS
CITY           SKY/WX    TMP DP  RH WIND       PRES   REMARKS
WILLISTON      CLEAR      9  -6  50 N3        30.51F
DICKINSON      CLEAR      9  -6  50 N6        30.42F WCI  -1
BEACH          CLEAR     10  -4  53 CALM      30.43F
CROSBY         CLEAR      0  -8  68 N5        30.53S WCI -11
TIOGA          CLEAR      1  -4  79 NW7       30.50F WCI -12
WATFORD CITY   CLEAR      7  -4  60 NW3       30.48F
BISMARCK       CLEAR      9  -6  50 N8        30.53S WCI  -3
GRAND FORKS    CLEAR      5  -6  60 NW8       30.51F WCI  -8
FARGO          FAIR       7  -4  60 NW6       30.53S WCI  -4
BUFFALO SD     CLEAR     10  -6  48 N3        30.33F
RAPID CITY     CLEAR      7  -4  60 NW9       30.39S WCI  -6
$$

REGIONAL REPORTS...WYOMING/IDAHO/WASHINGTON
CITY           SKY/WX    TMP DP  RH WIND       PRES   REMARKS
GILLETTE       CLEAR      9  -6  50 NE3       30.24S
SHERIDAN       PTCLDY     9  -2  61 S7        30.26F WCI  -2
CODY           CLOUDY     9   7  91 NE6       30.12S WCI  -1
YELLOWSTONE LA PTCLDY    19  -6  32 VRB5      29.89R WCI  12
SALMON         MOCLDY    39  19  45 S6        29.92F WCI  35
MULLAN PASS    LGT SNOW  27  19  72 CALM      29.91S
SAND POINT     MOCLDY    37  32  82 CALM      30.03F
SPOKANE        CLOUDY    43  30  60 NE7       29.99F
$$

REGIONAL REPORTS...ALBERTA
CITY           SKY/WX    TMP DP  RH WIND       PRES   REMARKS
CALGARY        MOCLDY    14   7  73 S15G22    30.07F WCI  -1
LETHBRIDGE     PTCLDY    18  10  71 SE14G20   30.15F WCI   4
MEDICINE HAT   FAIR      16   3  56 SE9       30.30F WCI   5
EDMONTON       MOCLDY    12   3  67 SE15      30.18F WCI  -4
WATERTON GATE  N/A        9   1  70 NE5        N/A
CARDSTON       N/A       14   7  73 SE10G20    N/A   WCI   1
MILK RIVER     N/A       12   7  80 S21G28     N/A   WCI  -7
$$

REGIONAL REPORTS...SASKATCHEWAN
CITY           SKY/WX    TMP DP  RH WIND       PRES   REMARKS
SWIFT CURRENT  CLEAR      7  -2  66 S12       30.33F WCI  -9
MOOSE JAW      N/A        1  -9  62 SE5       30.50F WCI  -9
REGINA         N/A       -2  -8  75 W5        30.50F WCI -13
VAL MARIE      N/A       12  -6  44 S14        N/A   WCI  -4
ASSINIBOIA     N/A        3  -8  60 E6         N/A   WCI  -8
CORONACH       N/A        9  -4  55 NE6        N/A   WCI  -1

$$



USA.gov is the U.S. government's official web portal to all federal, state and local government web resources and services.